Weather observations for the past three days for
Allentown, Lehigh Valley International Airport
Imperial (Metric)
Date Time (edt) Wind (mph) Vis. (mi.) Weather Sky Cond. Temperature (ºF) Relative Humidity Wind Chill (°F) Heat Index (°F) Pressure Precipitation (in)
Air Dwpt 6 hour altimeter (in) sea level (mb) 1 hr 3 hr 6 hr
Max. Min.
22 10:51 W 8 10.00 Fair CLR 88 70 55% 93 30.03 1016.4
22 09:51 W 7 10.00 Fair CLR 84 69.1 61% 88 30.05 1017.1
22 08:51 Vrbl 3 10.00 Fair CLR 80.1 69.1 69% 83 30.06 1017.5
22 07:51 Calm 10.00 Fair CLR 77 69.1 77 71.1 77% 79 30.06 1017.5
22 06:51 Calm 10.00 Fair CLR 73.9 69.1 85% 30.07 1017.7
22 05:51 Calm 10.00 Fair CLR 72 68 87% 30.07 1017.7
22 04:51 Calm 10.00 Fair CLR 73 68 84% 30.06 1017.6
22 03:51 Calm 10.00 A Few Clouds FEW085 75 66.9 76% 76 30.07 1017.8
22 02:51 Calm 10.00 Fair CLR 75 68 79% 76 30.08 1018.3
22 01:51 Calm 10.00 Partly Cloudy SCT095 77 66.9 90 75 71% 79 30.1 1018.8
22 00:51 NE 3 10.00 Fair CLR 75.9 66.9 74% 77 30.11 1019.3
21 23:51 N 10 10.00 Mostly Cloudy FEW048 SCT065 BKN100 79 66.9 67% 81 30.13 1020.0
21 22:51 NE 7 10.00 Fair CLR 81 68 65% 84 30.11 1019.3
21 21:51 SW 9 10.00 Fair CLR 84.9 66.9 55% 88 30.09 1018.6
21 20:51 S 7 10.00 A Few Clouds FEW070 88 64 45% 89 30.07 1017.8
21 19:51 S 9 10.00 Fair CLR 91 64 96.1 90 41% 93 30.06 1017.5
21 18:51 SW 9 10.00 Fair CLR 91.9 62.1 37% 93 30.06 1017.7
21 17:51 W 9 10.00 Fair CLR 93.9 63 36% 95 30.07 1017.7
21 16:51 SW 9 10.00 Fair CLR 95 64 36% 97 30.08 1018.2
21 15:51 W 9 10.00 Fair CLR 95 64 36% 97 30.09 1018.5
21 14:51 W 8 10.00 Fair CLR 95 64.9 37% 98 30.11 1019.3
21 13:51 S 8 10.00 A Few Clouds FEW060 93.9 64 93.9 75.9 37% 96 30.14 1020.2
21 12:51 SW 9 10.00 A Few Clouds FEW060 91.9 64.9 41% 94 30.16 1020.9
21 11:51 SW 9 10.00 Fair CLR 91 66 44% 94 30.18 1021.6
21 10:51 Vrbl 5 10.00 Fair CLR 88 66.9 50% 91 30.19 1021.8
21 09:51 W 6 10.00 Fair CLR 84 66.9 57% 87 30.2 1022.4
21 08:51 SW 5 10.00 Fair CLR 80.1 64.9 60% 82 30.21 1022.5
21 07:51 W 8 10.00 Fair CLR 75.9 64 75.9 68 67% 78 30.22 1022.8
21 06:51 SW 3 10.00 Fair CLR 73 64 74% 30.22 1023.0
21 05:51 W 5 10.00 Fair CLR 68 62.1 81% 30.22 1023.0
21 04:51 SW 7 10.00 Fair CLR 70 62.1 76% 30.22 1023.0
21 03:51 SW 6 10.00 Partly Cloudy SCT070 72 63 73% 30.22 1023.1
21 02:51 SW 6 10.00 A Few Clouds FEW065 72 64 76% 30.22 1022.9
21 01:51 Calm 10.00 A Few Clouds FEW065 73 64 86 72 74% 30.23 1023.4
21 00:51 W 3 10.00 Fair CLR 75.9 64 67% 78 30.24 1023.6
20 23:51 SW 5 10.00 Fair CLR 75.9 63 64% 78 30.24 1023.7
20 22:51 SW 7 10.00 Fair CLR 78.1 64 62% 80 30.24 1023.7
20 21:51 S 10 10.00 Fair CLR 82.9 64.9 55% 85 30.23 1023.4
20 20:51 SW 8 10.00 Fair CLR 80.1 64 58% 82 30.22 1022.9
20 19:51 SW 8 10.00 Fair CLR 86 63 91 86 46% 87 30.21 1022.6
20 18:51 SW 6 10.00 Fair CLR 89.1 64 43% 90 30.22 1022.9
20 17:51 W 7 10.00 Fair CLR 90 64 42% 91 30.23 1023.2
20 16:51 Vrbl 7 10.00 Fair CLR 90 64.9 44% 92 30.25 1023.8
20 15:58 Vrbl 6 10.00 Fair CLR 89.6 64.4 43% 91 30.26 0.0
20 12:51 SW 9 10.00 Fair CLR 87.1 63 45% 88 30.32 1026.3
20 11:51 SW 6 10.00 Fair CLR 86 63 46% 87 30.33 1026.6
20 10:51 SW 6 10.00 Fair CLR 84 64 51% 85 30.33 1026.7
20 08:51 SW 7 10.00 Fair CLR 77 63 62% 79 30.34 1027.1
20 07:51 W 6 10.00 Fair CLR 73 63 73 64.9 71% 30.34 1027.1
20 06:51 Calm 10.00 Fair CLR 70 64 82% 30.33 1026.7
20 05:51 W 6 10.00 Fair CLR 66 61 84% 30.32 1026.4
20 04:51 W 3 10.00 Fair CLR 68 62.1 81% 30.31 1026.1
20 03:51 SW 3 10.00 Fair CLR 70 63 79% 30.32 1026.3
20 02:51 SW 5 10.00 Fair CLR 71.1 63 76% 30.31 1026.0
20 01:51 Calm 10.00 Fair CLR 71.1 62.1 84.9 68 73% 30.32 1026.4
20 00:51 SW 7 10.00 Fair CLR 73 62.1 69% 30.33 1026.8
19 23:51 SW 8 10.00 Fair CLR 75.9 63 64% 78 30.33 1026.9
19 21:51 SW 10 10.00 Fair CLR 80.1 64 58% 82 30.32 1026.2
19 19:51 SW 9 10.00 Fair CLR 84.9 64.9 91.9 84.9 51% 87 30.29 1025.5
19 18:51 S 9 10.00 Fair CLR 88 66.9 50% 91 30.29 1025.3
19 17:51 S 9 10.00 Fair CLR 89.1 64.9 45% 91 30.28 1025.1
19 16:51 S 8 10.00 A Few Clouds FEW055 89.1 64 43% 90 30.29 1025.3
19 15:51 SW 8 10.00 Fair CLR 89.1 64.9 45% 91 30.31 1025.9
19 14:51 S 8 10.00 Fair CLR 91 64.9 42% 93 30.3 1025.8
19 13:51 SW 5 10.00 Fair CLR 89.1 66 90 73 47% 92 30.32 1026.2
19 12:51 SW 7 10.00 Fair CLR 88 66.9 50% 91 30.33 1026.8
19 11:51 Calm 10.00 Fair CLR 86 66 51% 88 30.35 1027.4
Date Time (edt) Wind (mph) Vis. (mi.) Weather Sky Cond. Air Dwpt Max. Min. Relative Humidity Wind Chill (°F) Heat Index (°F) altimeter (in) sea level (mb) 1 hr 3 hr 6 hr
6 hour
Temperature (ºF) Pressure Precipitation (in)